This is the latest recevied weather packets stored in our database for station/object N7CW. If no packets are shown the sender has not sent any weather packets the latest 10 day(s).
| Time | Temp. | Humidity | Pressure | Rain* | Wind** | Luminosity | Snow |
|---|---|---|---|---|---|---|---|
| 1777708748 | 6.67° C | 41% | 1018.7 hPa | 0 mm | - | 0 W/m² | - |
| 1777708445 | 7.78° C | 40% | 1018.8 hPa | 0 mm | - | 0 W/m² | - |
| 1777708144 | 7.78° C | 40% | 1018.7 hPa | 0 mm | - | 0 W/m² | - |
| 1777707840 | 8.33° C | 39% | 1018.8 hPa | 0 mm | - | 0 W/m² | - |
| 1777707536 | 8.33° C | 38% | 1018.7 hPa | 0 mm | - | 0 W/m² | - |
| 1777707232 | 7.78° C | 38% | 1019.1 hPa | 0 mm | - | 0 W/m² | - |
| 1777706931 | 7.78° C | 38% | 1018.7 hPa | 0 mm | - | 0 W/m² | - |
| 1777706628 | 7.22° C | 39% | 1019 hPa | 0 mm | - | 0 W/m² | - |
| 1777706325 | 7.78° C | 38% | 1019.1 hPa | 0 mm | - | 0 W/m² | - |
| 1777706023 | 8.33° C | 37% | 1019 hPa | 0 mm | - | 0 W/m² | - |
| 1777705721 | 8.33° C | 36% | 1018.8 hPa | 0 mm | - | 0 W/m² | - |
| 1777705418 | 8.33° C | 36% | 1018.8 hPa | 0 mm | - | 0 W/m² | - |
| 1777705117 | 8.33° C | 36% | 1018.8 hPa | 0 mm | - | 0 W/m² | - |
| 1777704815 | 8.33° C | 36% | 1018.7 hPa | 0 mm | - | 0 W/m² | - |
| 1777704512 | 9.44° C | 35% | 1018.7 hPa | 0 mm | - | 0 W/m² | - |
| 1777704210 | 8.89° C | 34% | 1018.8 hPa | 0 mm | - | 0 W/m² | - |
| 1777703907 | 9.44° C | 34% | 1018.6 hPa | 0 mm | - | 0 W/m² | - |
| 1777703605 | 9.44° C | 33% | 1018.8 hPa | 0 mm | - | 0 W/m² | - |
| 1777703302 | 10° C | 33% | 1018.8 hPa | 0 mm | - | 0 W/m² | - |
| 1777703000 | 10° C | 32% | 1018.8 hPa | 0 mm | - | 0 W/m² | - |
| 1777702698 | 10.56° C | 32% | 1019 hPa | 0 mm | - | 0 W/m² | - |
| 1777702396 | 11.11° C | 31% | 1018.7 hPa | 0 mm | - | 0 W/m² | - |
| 1777702091 | 11.67° C | 30% | 1018.7 hPa | 0 mm | - | 0 W/m² | - |
| 1777701786 | 12.22° C | 29% | 1018.7 hPa | 0 mm | - | 0 W/m² | - |
| 1777701485 | 11.11° C | 31% | 1018.5 hPa | 0 mm | - | 0 W/m² | - |
* Rain latest hour (hover to see other rain measurements)
** Current wind speed in m/s (hover to see current wind gust speed)